Theta_e
318 311 306 307 298 296 293 297 299 298 297 303 307 308 307 308 308 305 324 328 332 334 340 342 344 346 345 345 344 343 342 342 342 341 341 340 339 339 339 337 336 336 335 333 332 331 329 329 328
314 312 307 300 293 289 291 296 298 299 302 305 306 307 304 304 313 317 321 326 331 333 337 340 341 343 343 342 341 340 340 340 338 337 336 335 335 334 333 332 330 330 329 328 327 326 325 324 324
308 311 300 295 290 289 289 293 296 298 299 301 301 303 304 307 313 314 320 328 330 331 335 337 339 341 340 339 338 338 338 337 335 334 331 331 330 329 328 327 326 326 325 324 324 322 321 320 320
301 300 298 291 288 292 292 293 297 296 298 300 300 298 304 311 313 318 325 327 327 328 331 335 337 337 337 336 335 335 333 332 331 329 327 327 326 325 324 323 322 322 321 320 320 319 318 317 317
300 294 289 287 289 291 292 295 296 295 295 296 298 295 300 313 319 321 323 324 324 324 328 330 334 334 333 332 331 330 329 328 327 325 324 323 322 321 321 320 319 319 318 318 317 316 316 315 315
294 292 285 284 286 289 291 294 294 293 295 296 299 298 300 314 316 319 323 322 323 322 323 325 326 329 329 328 327 326 325 324 323 322 320 319 318 317 317 316 316 316 316 316 315 314 314 314 314
293 288 285 284 285 288 290 293 291 292 294 295 299 295 300 310 315 318 321 320 319 318 317 316 317 319 323 324 324 323 321 319 318 316 314 313 311 310 311 311 312 313 313 314 313 313 312 311 311
295 291 285 283 284 286 290 292 292 294 294 298 298 296 297 306 315 317 318 317 316 315 314 313 312 312 312 314 318 317 315 314 313 312 310 309 307 307 307 307 309 311 311 312 311 311 309 309 308
295 286 283 284 286 287 291 290 293 293 294 295 298 298 304 311 312 312 310 309 309 311 312 310 310 309 309 309 310 312 313 310 308 307 306 301 297 298 299 305 307 308 308 309 309 308 307 305 304
289 284 285 287 285 286 289 290 289 290 290 293 302 307 310 309 309 307 305 304 304 305 306 307 308 307 305 305 305 305 305 303 303 301 299 299 297 300 300 301 304 305 304 305 306 306 303 299 294
289 287 289 288 289 289 290 288 289 288 287 291 298 304 306 305 305 304 303 302 303 303 303 304 303 302 303 304 304 303 302 301 301 298 299 298 298 296 295 294 294 293 297 293 294 294 294 293 293
288 290 291 291 291 289 288 289 287 287 289 293 301 307 306 305 304 304 302 302 299 299 300 302 301 298 298 299 298 298 299 298 296 297 298 297 295 294 294 293 293 293 293 292 292 292 293 293 294
287 289 291 290 290 288 289 286 286 286 288 295 304 305 305 305 305 305 305 304 300 297 298 298 297 298 298 297 296 296 296 296 295 296 297 296 294 293 293 293 293 292 293 292 292 292 292 292 293
289 290 289 290 290 290 287 286 287 286 289 293 302 302 303 304 305 304 305 303 300 298 297 298 298 298 298 296 295 295 295 295 295 294 295 295 293 292 292 292 292 292 292 292 292 291 291 291 292
290 286 287 289 290 289 289 286 285 287 289 289 292 294 300 302 303 304 305 304 302 298 298 298 298 298 297 296 296 295 295 295 294 294 294 294 294 292 292 291 291 291 291 291 292 292 292 291 292
286 285 281 287 289 290 288 283 287 287 287 287 288 290 292 292 292 294 301 304 301 298 297 298 300 298 297 296 295 295 294 294 293 293 293 294 294 292 291 291 290 291 291 291 290 289 289 289 289
285 279 281 285 289 287 287 283 288 288 288 287 287 289 290 291 292 293 294 297 299 298 297 297 298 297 296 296 295 294 294 293 293 292 292 293 294 294 291 290 290 291 290 289 289 289 288 288 288
280 279 284 283 286 285 284 284 285 286 287 285 286 287 289 290 291 294 294 294 299 297 297 297 297 296 296 295 294 293 293 293 293 292 293 294 293 293 291 290 290 290 289 288 288 288 289 288 288
284 283 281 284 286 282 282 281 283 284 284 284 284 286 288 289 291 294 295 295 296 296 296 296 296 295 294 292 292 291 291 292 292 293 294 294 293 293 291 290 289 289 288 288 288 288 287 287 288
285 281 280 283 285 282 280 280 282 284 283 284 285 285 287 288 290 292 294 294 294 295 295 295 296 295 295 294 294 293 292 292 293 294 294 294 294 293 292 290 289 288 288 288 287 287 286 286 287
280 280 278 279 281 282 279 278 280 283 284 284 285 285 286 287 288 290 292 292 293 293 294 295 296 296 295 295 294 292 292 291 291 291 292 293 294 293 293 291 289 288 288 287 287 287 286 284 286
281 282 281 280 274 272 278 271 278 280 281 282 283 282 283 285 288 290 290 291 291 292 294 295 296 296 296 295 293 292 290 289 291 291 292 292 293 292 292 291 290 288 288 287 287 289 287 286 284
280 282 280 278 271 270 272 266 273 279 278 280 280 282 282 283 286 287 288 289 289 290 290 293 294 295 295 294 293 291 290 291 291 291 291 291 291 292 291 291 289 288 288 287 287 287 287 286 285
282 279 279 277 270 264 265 267 272 276 279 279 281 281 283 283 284 285 287 288 287 288 288 289 291 290 292 292 292 291 291 290 289 289 289 289 290 290 291 291 290 289 288 287 287 287 287 287 286
280 272 264 265 265 265 261 268 275 279 280 281 280 281 282 283 283 284 284 285 285 285 286 288 288 288 289 289 289 289 288 288 288 288 288 288 288 289 290 290 289 288 288 288 288 287 287 287 285
277 272 265 258 264 267 261 266 275 278 280 281 282 282 283 283 283 283 284 284 284 284 284 285 285 286 286 287 287 287 287 287 287 287 287 287 287 288 290 290 289 289 289 288 288 287 286 286 285
275 267 275 262 255 261 266 271 278 278 277 279 280 281 281 282 282 282 282 282 282 282 282 282 283 283 284 285 285 285 286 285 285 286 286 286 287 289 289 289 289 288 288 288 287 286 286 286 285
276 277 268 265 260 257 263 260 272 271 273 274 278 278 279 281 282 282 283 283 283 282 281 282 282 282 283 283 283 284 284 284 284 284 284 284 285 287 287 287 288 288 287 287 287 286 286 285 285
270 268 269 270 270 264 259 268 272 273 275 275 276 278 275 276 280 281 282 283 283 282 281 281 281 281 282 282 282 282 282 283 283 283 283 284 284 285 285 286 287 287 287 287 286 286 286 285 285
276 272 275 269 265 266 268 269 274 273 270 272 275 276 275 273 276 275 279 280 281 281 280 280 281 280 281 282 282 282 282 282 281 281 282 283 283 284 284 285 285 286 286 287 285 286 286 285 285
Wind_Speed
9 8 1 4 4 4 3 4 2 1 2 2 2 8 9 4 3 3 1 4 4 6 7 10 15 17 18 19 18 18 19 19 18 18 17 16 15 15 15 14 14 13 13 14 14 14 14 14 14
5 6 5 3 5 1 5 4 2 2 2 8 6 4 7 3 3 3 4 3 5 6 7 9 14 16 18 18 17 17 18 20 17 16 15 14 14 14 14 14 14 14 13 13 13 14 14 15 15
4 0 4 5 3 5 4 3 4 1 2 1 4 7 4 2 3 3 0 5 7 7 9 9 15 19 18 18 18 17 18 17 16 15 13 14 13 13 14 14 14 14 13 13 13 13 13 14 15
2 5 5 5 6 5 4 3 2 2 3 5 5 7 4 4 5 6 7 7 9 8 8 11 16 17 18 16 17 18 16 16 15 15 14 14 14 13 14 14 14 14 14 14 14 14 14 14 15
4 3 4 2 5 3 1 4 5 2 3 2 3 4 3 3 8 9 9 8 10 8 8 9 13 17 16 15 15 17 16 15 14 15 15 13 13 12 13 13 13 13 13 13 13 13 14 14 15
4 4 4 3 5 2 1 3 2 3 1 2 7 5 2 5 7 6 9 9 8 8 7 9 9 12 13 13 15 16 16 14 14 14 14 12 12 12 12 13 12 12 12 12 13 13 14 14 14
5 4 4 4 3 2 2 5 2 2 2 3 7 5 3 5 6 7 9 8 8 8 8 8 8 10 12 12 12 14 15 14 14 14 13 12 11 12 12 11 11 11 11 12 12 13 14 14 13
5 4 2 3 2 2 4 2 1 4 1 2 2 5 4 5 8 7 8 9 8 7 7 7 7 7 7 7 12 12 14 14 13 12 10 10 10 10 10 8 11 12 11 12 13 13 13 13 13
4 5 0 1 1 2 4 2 5 4 4 5 5 3 3 10 10 8 6 5 5 4 6 5 6 6 6 6 6 8 11 11 9 7 9 6 3 4 5 8 10 11 12 13 13 13 14 13 12
5 4 3 2 1 0 2 2 4 2 1 4 4 6 9 11 13 11 8 7 4 5 4 5 5 5 4 6 4 4 4 3 4 4 4 3 4 4 5 6 10 11 11 12 12 13 13 9 4
2 4 4 2 1 1 4 2 4 2 2 5 6 8 6 6 7 9 6 7 7 6 4 6 6 5 4 4 2 2 2 2 3 4 3 3 3 3 3 3 3 4 7 4 6 6 4 7 5
4 2 2 2 2 1 1 5 3 0 2 2 11 12 6 7 7 8 7 7 8 6 7 6 6 5 4 3 2 3 2 2 2 2 4 3 2 3 3 3 3 4 3 5 4 3 5 6 6
2 2 2 2 1 1 2 2 3 1 1 4 8 8 8 7 7 6 8 7 7 7 7 8 7 6 5 5 3 3 3 2 2 2 3 3 3 3 2 3 3 3 4 4 4 4 4 5 6
2 3 3 1 0 1 1 2 3 2 5 7 8 8 8 9 11 6 6 8 8 7 8 7 7 6 6 4 4 3 3 3 2 2 2 3 3 2 2 3 3 3 3 4 4 4 4 4 5
4 3 1 3 4 2 1 1 4 4 6 7 9 7 7 8 6 10 11 10 12 8 8 8 7 7 6 5 4 3 3 3 3 2 2 3 3 3 2 2 2 2 3 4 4 4 4 4 5
2 4 1 1 6 1 1 2 1 1 4 5 3 5 6 6 5 5 5 6 10 9 10 8 7 7 7 5 4 3 2 2 2 1 1 1 2 2 2 1 2 3 3 3 3 3 4 4 4
6 2 2 2 3 4 1 2 6 6 7 7 6 5 5 6 7 6 7 3 7 11 10 8 7 7 7 5 3 2 2 1 1 1 1 2 0 1 2 2 3 3 3 3 3 2 3 4 5
3 0 2 2 4 5 1 1 4 7 8 7 6 5 6 6 6 7 8 6 6 7 9 8 6 7 7 4 3 2 1 1 1 3 3 4 2 1 0 1 2 2 2 3 3 3 3 2 4
2 1 0 1 3 2 1 2 2 3 6 6 5 4 4 5 4 6 7 7 5 6 7 8 8 6 5 3 3 1 2 2 3 3 4 4 3 3 2 1 2 2 2 2 3 3 4 3 5
5 2 2 3 3 3 2 5 2 2 2 5 6 4 4 3 6 7 8 8 6 5 7 7 7 7 5 4 2 2 2 2 2 2 4 4 4 4 3 3 3 2 2 3 3 2 3 2 4
4 2 3 2 7 2 6 5 3 1 4 4 4 3 4 4 5 5 7 7 7 7 4 7 7 7 5 4 3 2 2 2 2 2 3 4 5 5 4 4 3 3 2 2 2 1 0 1 2
1 3 2 4 5 3 5 6 6 6 4 2 3 4 4 4 4 5 6 7 8 7 6 4 4 6 4 5 3 3 2 2 2 2 2 4 4 5 5 5 4 4 3 3 3 2 2 2 2
1 3 3 3 4 4 6 5 8 5 6 5 4 4 4 4 5 6 6 6 5 7 7 6 6 5 3 3 3 2 2 2 2 2 3 3 4 5 5 5 5 5 4 4 5 4 3 2 2
2 3 6 4 4 4 4 5 8 6 8 5 4 5 6 5 5 4 4 5 6 6 7 7 7 6 6 4 4 1 2 3 3 3 4 4 3 4 5 6 5 5 5 5 5 5 5 5 4
6 6 5 7 5 7 2 1 13 6 5 10 10 8 6 5 4 4 5 5 6 7 7 6 7 6 6 6 6 5 4 4 4 5 4 5 4 3 5 4 6 5 6 6 5 5 5 5 4
3 6 7 6 2 6 3 7 8 3 2 7 7 7 6 5 4 4 4 4 4 5 6 6 6 5 6 6 6 5 5 3 3 3 4 4 3 4 5 6 6 7 6 6 6 4 5 5 5
2 1 3 8 2 5 4 9 8 4 3 5 7 6 6 6 5 5 4 3 4 3 4 4 4 4 5 5 5 5 5 5 5 6 4 4 5 4 6 6 6 6 7 7 6 5 7 6 5
4 2 5 4 2 6 7 8 9 6 10 5 8 9 8 6 6 4 3 2 2 2 2 4 4 4 4 5 4 4 5 5 5 5 6 6 6 5 6 7 7 7 6 6 6 6 6 6 6
2 2 4 4 5 6 3 9 8 10 12 15 10 9 9 8 8 6 4 3 3 1 3 4 4 4 5 5 5 6 5 6 6 5 6 6 6 6 7 7 7 8 8 7 7 9 8 8 9
2 4 5 6 7 3 2 13 4 7 7 9 10 9 8 6 6 5 5 4 3 2 3 3 3 4 5 5 5 6 6 6 6 6 6 6 6 6 6 7 8 8 8 8 8 10 10 10 10
Wind_Direction
328 318 322 37 50 61 274 271 264 159 75 346 339 95 116 70 30 158 92 10 31 49 87 93 103 99 100 101 94 96 93 84 76 70 71 74 73 74 73 68 65 62 57 52 45 39 34 33 27
340 340 34 65 86 67 271 290 159 309 91 132 95 94 45 79 88 130 131 354 46 64 84 92 99 100 100 96 96 96 93 91 87 82 76 73 74 74 72 70 67 60 55 54 48 40 34 26 22
326 54 82 105 137 189 201 325 184 153 26 106 81 47 77 55 66 106 253 100 75 58 79 91 99 100 99 94 94 93 94 93 96 91 86 83 77 71 71 68 62 58 53 47 45 44 36 33 25
25 16 29 102 218 247 177 203 249 107 358 49 125 64 53 318 159 144 111 99 82 62 65 85 99 100 99 100 100 98 95 97 96 95 85 79 75 70 69 64 61 56 51 45 40 36 32 31 30
32 61 78 151 251 250 247 199 175 184 152 77 116 167 72 33 100 117 115 99 92 76 72 75 86 100 101 104 106 104 100 95 91 86 81 74 76 74 69 67 63 59 54 49 42 34 35 24 24
37 95 76 211 257 320 5 338 192 47 19 112 77 104 93 142 120 130 119 100 94 90 74 80 70 92 103 109 107 106 107 102 98 90 84 76 69 63 62 60 55 52 48 46 41 39 33 34 24
113 92 194 187 248 55 308 321 44 112 142 51 147 88 136 175 163 137 124 112 105 96 86 76 66 61 73 84 93 102 103 99 93 90 88 81 76 68 59 58 58 49 42 38 40 38 32 30 27
106 95 147 2 242 167 310 33 76 65 19 85 104 168 202 194 156 134 125 121 117 109 103 99 81 73 62 66 78 89 98 97 94 92 81 82 71 64 62 42 39 42 38 35 31 32 29 26 19
75 61 168 26 174 173 343 126 337 304 82 41 359 129 178 121 127 120 117 90 94 107 115 103 101 94 93 89 93 95 98 97 93 92 99 85 73 59 37 29 34 35 33 29 25 25 21 19 13
87 106 194 219 216 253 317 83 318 85 20 40 29 19 100 124 135 139 148 142 140 147 140 126 124 131 134 123 115 104 97 93 93 93 96 84 69 53 49 25 33 30 32 26 21 17 15 15 2
149 167 164 257 257 318 314 2 309 97 360 200 178 162 138 131 135 142 155 155 168 164 154 161 149 165 160 136 148 126 113 102 85 86 86 68 63 58 55 37 11 16 21 14 16 0 7 356 3
94 20 122 200 324 31 331 305 0 104 241 285 163 158 148 152 165 163 168 166 153 165 163 172 166 164 160 136 144 138 124 114 105 89 88 86 64 43 44 55 32 23 359 3 6 357 351 357 349
99 166 92 162 60 75 304 305 283 304 179 86 121 143 164 168 180 195 185 185 166 171 175 175 161 165 165 163 161 149 148 131 131 90 74 88 71 53 38 25 38 18 357 2 357 354 354 348 342
154 113 149 134 64 2 340 256 20 256 140 119 146 176 185 185 196 196 194 197 185 181 182 176 173 165 162 156 163 163 151 152 136 111 104 86 97 81 48 29 23 9 357 347 354 351 347 335 332
130 98 65 7 340 244 148 18 233 193 146 158 179 193 200 213 207 209 207 193 188 190 175 179 170 168 166 162 162 163 175 138 139 133 103 96 81 63 55 35 18 349 345 353 354 345 337 335 330
72 43 71 321 357 334 70 243 299 107 135 172 89 95 100 50 52 16 267 203 183 166 177 177 170 168 167 170 169 163 147 140 139 128 100 95 91 83 54 29 348 335 1 2 351 341 337 341 333
14 192 212 312 64 311 166 185 329 357 99 78 100 74 71 46 21 7 353 316 188 176 170 175 167 168 169 159 145 148 137 122 156 156 199 228 194 64 52 3 326 354 3 2 343 336 357 329 332
241 211 268 253 346 353 304 276 349 22 97 107 99 80 65 45 3 342 339 326 207 178 172 164 162 160 156 130 96 59 52 293 228 221 219 216 228 223 89 326 320 352 357 348 351 339 324 292 322
277 266 312 288 9 343 345 285 265 89 88 109 108 94 75 50 341 0 346 346 88 151 152 160 156 163 137 115 116 104 227 232 253 236 236 218 223 224 223 263 301 337 335 321 332 324 348 321 337
42 73 310 305 360 352 43 280 233 165 127 156 141 109 76 37 15 5 1 6 22 155 161 152 157 156 163 153 171 164 176 222 216 229 237 229 227 227 221 226 245 256 283 324 338 9 339 318 13
38 42 357 260 326 14 346 313 198 55 102 97 66 86 61 64 39 12 13 17 19 37 161 162 168 167 169 161 111 73 50 26 1 298 273 244 230 232 232 237 238 256 237 273 282 293 268 331 326
100 345 11 13 44 247 28 277 264 208 186 131 92 85 88 61 43 31 20 22 19 12 34 112 152 159 161 158 155 173 189 218 244 247 260 282 249 244 239 240 239 241 239 255 257 235 216 149 261
112 36 44 84 88 50 343 69 266 143 229 204 178 137 97 66 70 43 32 27 19 21 31 43 78 79 97 132 147 165 202 232 278 293 313 306 294 260 256 246 240 239 236 243 242 259 236 211 205
40 49 34 56 79 21 256 125 276 191 206 184 185 168 141 116 91 64 36 33 33 29 45 49 59 39 31 34 28 17 281 299 318 315 316 312 298 285 262 250 236 233 231 230 232 233 234 234 229
57 49 335 353 8 224 302 25 243 241 203 179 167 167 156 137 116 94 70 50 43 40 36 58 61 45 31 38 31 17 2 338 315 305 301 311 308 291 290 270 248 234 231 229 224 226 228 225 218
85 136 153 217 241 269 3 242 256 295 90 119 132 150 146 138 135 127 117 95 64 48 44 41 45 49 30 30 20 15 15 1 331 320 310 296 287 287 288 284 264 248 237 232 226 226 226 218 227
250 60 149 100 42 41 262 294 298 78 61 134 160 162 167 171 170 158 142 132 117 77 45 40 32 21 19 6 1 354 355 353 335 326 318 309 305 302 300 297 286 265 248 234 222 227 234 219 226
145 140 42 3 339 301 292 277 246 241 218 224 199 197 195 197 195 192 163 169 199 117 30 21 16 7 343 346 351 346 339 335 328 325 318 315 307 312 312 305 294 284 260 243 230 240 239 220 235
46 341 41 128 149 191 272 263 214 216 197 203 209 204 199 210 212 212 227 244 253 279 3 351 353 342 332 333 330 337 330 325 322 311 304 300 300 308 307 304 299 289 277 254 237 242 244 231 243
142 183 162 136 258 255 188 266 198 208 217 201 214 213 206 209 221 242 253 265 273 284 310 308 304 308 302 301 312 311 310 313 313 308 301 295 293 296 292 298 297 294 285 275 246 249 247 233 239